Simultaneous Nadir Overpasses (SNOs) Predictions

Prediction of SNOs between GOES-16 and NOAA-20 Satellite Orbit:

Table of predicted SNOs for the next 14.0 days since TLE Epoch: 6/20/2020
Index Date Time (GOES-16) GOES-16 Lat,Lon NOAA-20 Lat,Lon Distance(km) Time Diff (sec)
1 06/20/2020 06:45:05 0.01, -75.20 0.96, -79.56 496.14 80
2 06/21/2020 06:23:40 0.01, -75.20 -0.03, -75.02 20.48 80
3 06/23/2020 18:26:51 0.00, -75.22 -0.14, -75.79 65.72 80
4 06/24/2020 18:10:46 0.00, -75.22 0.91, -71.27 451.44 80
5 06/26/2020 06:32:33 0.00, -75.23 0.26, -76.54 148.28 80
6 06/27/2020 06:11:08 0.00, -75.24 -0.72, -72.00 369.24 80
7 06/28/2020 18:33:03 -0.00, -75.26 -0.48, -77.30 232.61 80
8 06/29/2020 18:16:59 -0.00, -75.27 0.57, -72.77 285.26 80
9 07/01/2020 06:38:46 -0.00, -75.29 0.61, -78.04 313.46 80
10 07/02/2020 06:17:22 -0.01, -75.31 -0.44, -73.52 204.48 80
11 07/03/2020 18:39:17 0.01, -75.33 -0.76, -78.82 396.87 80




NCC Satellite Simultaneous Nadir Overpasses (SNOs) Prediction Service
